Weather History for PASV - July, 2013

Change the Weather History Date:

Tuesday, July 2, 2013

  Actual Average Record
Temperature  
Mean Temperature 42 °F -  
Max Temperature 46 °F 61 °F 71 °F (1997)
Min Temperature 39 °F 43 °F 39 °F (2013)
Degree Days  
Heating Degree Days 22    
Moisture  
Dew Point 41 °F    
Average Humidity 89    
Maximum Humidity 94    
Minimum Humidity 86    
Precipitation  
Precipitation 0.10 in - - ()
Sea Level Pressure  
Sea Level Pressure 29.70 in    
Wind  
Wind Speed 10 mph (South)    
Max Wind Speed 14 mph    
Max Gust Speed 23 mph    
Visibility 10 miles    
Events Rain    
Averages and records for this station are not official NWS values.
T = Trace of Precipitation, MM = Missing Value Source: NWS Daily Summary

Daily Weather History Graph

Daily Weather History Graph

Search for Another Location

Airport or City:

Trip Planner

Search our weather history database for the weather conditions in past years. The results will help you decide how hot, cold, wet, or windy it might be!

Date:

Astronomy

Jul. 02, 2013 Rise Set
Actual Time 4:53 AM AKDT 11:58 PM AKDT
Civil Twilight 2:58 AM AKDT 1:54 AM AKDT
Nautical Twilight Sun does not rise Sun does not rise
Astronomical Twilight Sun does not rise Sun does not rise
Moon 2:04 AM AKDT (7/2) 6:33 PM AKDT (7/2)
Length of Visible Light 22h 55m
Length of Day
19h 05m
Waning Crescent, 25% of the Moon is Illuminated
Jul 2
Waning Crescent
Jul 7
New
Jul 15
First Quarter
Jul 22
Full
Jul 29
Last Quarter

Hourly Weather History & Observations

Time (AKDT) Temp. Windchill Dew Point Humidity Pressure Visibility Wind Dir Wind Speed Gust Speed Precip Events Conditions
12:21 AM 42.8 °F 38.6 °F 41.0 °F 93% 29.58 in 10.0 mi Variable 6.9 mph - N/A   Mostly Cloudy
12:51 AM 42.8 °F 38.0 °F 41.0 °F 93% 29.58 in 10.0 mi South 8.1 mph - N/A   Mostly Cloudy
12:55 AM 43.2 °F 37.9 °F 41.2 °F 93% 29.58 in 10.0 mi SSW 9.2 mph - N/A   Overcast
1:36 AM 42.8 °F 37.0 °F 41.0 °F 93% 29.59 in 6.0 mi South 10.4 mph 16.1 mph N/A   Light Drizzle
1:55 AM 42.1 °F 36.6 °F 40.5 °F 94% 29.59 in 10.0 mi South 9.2 mph - N/A   Overcast
2:06 AM 42.8 °F 36.6 °F 39.2 °F 87% 29.59 in 10.0 mi SSW 11.5 mph 18.4 mph N/A   Overcast
2:36 AM 42.8 °F 37.0 °F 39.2 °F 87% 29.60 in 10.0 mi SSW 10.4 mph - N/A   Overcast
2:55 AM 41.9 °F 35.9 °F 38.8 °F 89% 29.60 in 10.0 mi SSW 10.4 mph - N/A   Overcast
3:36 AM 41.0 °F 34.3 °F 39.2 °F 93% 29.61 in 10.0 mi SSW 11.5 mph 18.4 mph N/A   Overcast
3:55 AM 40.8 °F 34.5 °F 37.9 °F 89% 29.61 in 10.0 mi SSW 10.4 mph 19.6 mph N/A   Overcast
4:06 AM 41.0 °F 34.7 °F 37.4 °F 87% 29.62 in 10.0 mi South 10.4 mph 19.6 mph N/A   Overcast
4:21 AM 41.0 °F 34.3 °F 37.4 °F 87% 29.62 in 10.0 mi South 11.5 mph 19.6 mph N/A   Mostly Cloudy
4:55 AM 40.3 °F 34.9 °F 37.0 °F 88% 29.62 in 10.0 mi SSW 8.1 mph 16.1 mph N/A   Overcast
5:06 AM 41.0 °F 34.3 °F 37.4 °F 87% 29.62 in 10.0 mi South 11.5 mph 21.9 mph N/A Rain Light Rain
5:52 AM 39.2 °F 33.0 °F 37.4 °F 93% 29.63 in 10.0 mi SSW 9.2 mph 17.3 mph N/A   Mostly Cloudy
5:55 AM 39.7 °F 32.7 °F 37.2 °F 91% 29.63 in 10.0 mi SSW 11.5 mph 17.3 mph N/A   Mostly Cloudy
6:22 AM 39.2 °F 34.2 °F 37.4 °F 93% 29.64 in 10.0 mi Variable 6.9 mph - N/A Rain Light Rain Showers
6:37 AM 41.0 °F 36.4 °F 37.4 °F 87% 29.64 in 10.0 mi Variable 6.9 mph - N/A   Mostly Cloudy
6:52 AM 41.0 °F 38.0 °F 37.4 °F 87% 29.64 in 10.0 mi Variable 4.6 mph - N/A Rain Light Rain Showers
6:55 AM 40.1 °F 34.7 °F 36.7 °F 88% 29.64 in 10.0 mi SSW 8.1 mph - N/A Rain Light Rain Showers
7:52 AM 41.0 °F 35.8 °F 37.4 °F 87% 29.65 in 10.0 mi South 8.1 mph - N/A   Mostly Cloudy
7:55 AM 40.3 °F 33.9 °F 36.9 °F 88% 29.65 in 10.0 mi South 10.4 mph 16.1 mph N/A   Mostly Cloudy
8:22 AM 41.0 °F 35.8 °F 37.4 °F 87% 29.66 in 10.0 mi South 8.1 mph 16.1 mph N/A Rain Light Rain Showers
8:52 AM 41.0 °F 35.8 °F 37.4 °F 87% 29.67 in 10.0 mi South 8.1 mph - N/A   Mostly Cloudy
8:55 AM 41.2 °F 36.0 °F 37.4 °F 86% 29.67 in 10.0 mi South 8.1 mph 15.0 mph N/A   Mostly Cloudy
9:22 AM 41.0 °F 33.9 °F 37.4 °F 87% 29.67 in 10.0 mi SSE 12.7 mph 17.3 mph N/A Rain Light Rain Showers
9:52 AM 41.0 °F 36.4 °F 37.4 °F 87% 29.67 in 10.0 mi South 6.9 mph - N/A Rain Light Rain Showers
9:55 AM 41.7 °F 35.6 °F 38.3 °F 88% 29.67 in 10.0 mi South 10.4 mph 18.4 mph N/A Rain Light Rain Showers
10:55 AM 42.1 °F 36.1 °F 39.7 °F 91% 29.68 in 10.0 mi South 10.4 mph 16.1 mph 0.00 in Rain Light Rain
11:55 AM 43.3 °F 38.6 °F 40.8 °F 91% 29.70 in 10.0 mi South 8.1 mph 20.7 mph 0.02 in Rain Light Rain
12:22 PM 44.6 °F 38.4 °F 41.0 °F 87% 29.71 in 10.0 mi South 12.7 mph 21.9 mph N/A Rain Light Rain
12:37 PM 44.6 °F 38.1 °F 41.0 °F 87% 29.71 in 10.0 mi South 13.8 mph 20.7 mph N/A Rain Light Rain
12:55 PM 44.1 °F 38.1 °F 42.4 °F 94% 29.71 in 9.0 mi South 11.5 mph 18.4 mph 0.00 in Rain Light Rain
1:52 PM 44.6 °F 38.8 °F 42.8 °F 93% 29.72 in 10.0 mi South 11.5 mph 23.0 mph N/A Rain Light Rain
1:55 PM 45.5 °F 41.3 °F 42.8 °F 90% 29.73 in 10.0 mi South 8.1 mph 23.0 mph 0.02 in Rain Light Rain
2:07 PM 46.4 °F 41.9 °F 42.8 °F 87% 29.73 in 10.0 mi South 9.2 mph 20.7 mph N/A Rain Light Rain
2:37 PM 44.6 °F 38.8 °F 42.8 °F 93% 29.73 in 10.0 mi South 11.5 mph 18.4 mph N/A Rain Light Rain
2:52 PM 46.4 °F 40.4 °F 42.8 °F 87% 29.74 in 10.0 mi South 13.8 mph 20.7 mph N/A Rain Light Rain
2:55 PM 45.9 °F 40.4 °F 42.8 °F 89% 29.74 in 10.0 mi South 11.5 mph 20.7 mph 0.02 in Rain Light Rain
3:22 PM 46.4 °F 42.4 °F 44.6 °F 93% 29.74 in 10.0 mi South 8.1 mph 19.6 mph N/A Rain Light Rain
3:37 PM 46.4 °F 40.7 °F 42.8 °F 87% 29.75 in 10.0 mi South 12.7 mph 20.7 mph N/A Rain Light Rain
3:55 PM 45.9 °F 40.0 °F 42.8 °F 89% 29.75 in 10.0 mi SSW 12.7 mph 23.0 mph 0.02 in Rain Light Rain
4:52 PM 46.4 °F 41.1 °F 42.8 °F 87% 29.76 in 10.0 mi SSW 11.5 mph 19.6 mph N/A Rain Light Rain
4:55 PM 46.4 °F 40.4 °F 43.0 °F 88% 29.76 in 10.0 mi South 13.8 mph 21.9 mph 0.00 in Rain Light Rain
5:22 PM 44.6 °F 39.2 °F 42.8 °F 93% 29.77 in 10.0 mi South 10.4 mph 21.9 mph N/A Rain Light Rain
5:37 PM 46.4 °F 40.4 °F 42.8 °F 87% 29.77 in 10.0 mi South 13.8 mph 20.7 mph N/A Rain Light Rain
5:52 PM 46.4 °F 41.9 °F 42.8 °F 87% 29.77 in 10.0 mi South 9.2 mph 18.4 mph N/A Rain Light Rain
5:55 PM 45.9 °F 40.8 °F 43.3 °F 91% 29.77 in 10.0 mi South 10.4 mph 18.4 mph 0.02 in Rain Light Rain
6:55 PM 45.9 °F 40.0 °F 42.8 °F 89% 29.78 in 10.0 mi SSW 12.7 mph 21.9 mph N/A Rain Light Rain Showers
7:37 PM 46.4 °F 40.7 °F 42.8 °F 87% 29.78 in 10.0 mi South 12.7 mph 20.7 mph N/A   Mostly Cloudy
7:52 PM 46.4 °F 41.1 °F 42.8 °F 87% 29.79 in 10.0 mi South 11.5 mph 21.9 mph N/A   Mostly Cloudy
7:55 PM 45.9 °F 40.0 °F 42.4 °F 88% 29.79 in 10.0 mi South 12.7 mph 21.9 mph 0.00 in   Mostly Cloudy
8:22 PM 46.4 °F 41.1 °F 42.8 °F 87% 29.79 in 10.0 mi South 11.5 mph 21.9 mph N/A   Overcast
8:37 PM 46.4 °F 41.9 °F 42.8 °F 87% 29.80 in 10.0 mi South 9.2 mph 17.3 mph N/A   Overcast
8:52 PM 46.4 °F 41.9 °F 42.8 °F 87% 29.80 in 10.0 mi South 9.2 mph 15.0 mph N/A   Overcast
8:55 PM 45.7 °F 41.0 °F 42.4 °F 88% 29.79 in 10.0 mi South 9.2 mph - N/A   Overcast
9:52 PM 44.6 °F 41.4 °F 42.8 °F 93% 29.81 in 10.0 mi Variable 5.8 mph - N/A   Light Drizzle
9:55 PM 45.1 °F 41.4 °F 42.3 °F 90% 29.81 in 10.0 mi Variable 6.9 mph - N/A   Light Drizzle
10:55 PM 44.6 °F 39.2 °F 42.4 °F 92% 29.82 in 10.0 mi South 10.4 mph 20.7 mph N/A Rain Light Rain
11:22 PM 44.6 °F 38.8 °F 41.0 °F 87% 29.82 in 10.0 mi South 11.5 mph 17.3 mph N/A Rain Light Rain
11:37 PM 44.6 °F 40.2 °F 41.0 °F 87% 29.83 in 10.0 mi SSW 8.1 mph 19.6 mph N/A   Overcast
11:55 PM 44.1 °F 38.6 °F 42.1 °F 93% 29.83 in 10.0 mi SSW 10.4 mph 20.7 mph 0.00 in   Overcast